This is the latest recevied weather packets stored in our database for station/object SQ8SW-4. If no packets are shown the sender has not sent any weather packets the latest 10 day(s).
| Time | Temp. | Humidity | Pressure | Rain* | Wind** | Luminosity | Snow |
|---|---|---|---|---|---|---|---|
| 1777626522 | 13.89° C | 43% | 998 hPa | - | - | - | - |
| 1777625620 | 13.33° C | 43% | 998 hPa | - | - | - | - |
| 1777624718 | 13.33° C | 45% | 998 hPa | - | - | - | - |
| 1777623816 | 13.33° C | 43% | 999 hPa | - | - | - | - |
| 1777622914 | 13.33° C | 40% | 999 hPa | - | - | - | - |
| 1777622011 | 12.22° C | 40% | 999 hPa | - | - | - | - |
| 1777621109 | 11.11° C | 41% | 999 hPa | - | - | - | - |
| 1777620207 | 10.56° C | 43% | 999 hPa | - | - | - | - |
| 1777619304 | 10° C | 44% | 999 hPa | - | - | - | - |
| 1777618402 | 10° C | 44% | 999 hPa | - | - | - | - |
| 1777617500 | 10° C | 43% | 999 hPa | - | - | - | - |
| 1777616598 | 10° C | 43% | 999 hPa | - | - | - | - |
| 1777615696 | 10° C | 42% | 999 hPa | - | - | - | - |
| 1777614793 | 10° C | 43% | 999 hPa | - | - | - | - |
| 1777613891 | 9.44° C | 48% | 999 hPa | - | - | - | - |
| 1777612989 | 8.89° C | 49% | 999 hPa | - | - | - | - |
| 1777612087 | 8.33° C | 48% | 999 hPa | - | - | - | - |
| 1777611185 | 7.22° C | 52% | 999 hPa | - | - | - | - |
| 1777610282 | 6.11° C | 56% | 999 hPa | - | - | - | - |
| 1777609380 | 6.11° C | 60% | 999 hPa | - | - | - | - |
| 1777608478 | 5.56° C | 60% | 999 hPa | - | - | - | - |
| 1777607576 | 5.56° C | 61% | 999 hPa | - | - | - | - |
| 1777606674 | 5.56° C | 64% | 999 hPa | - | - | - | - |
| 1777605771 | 5.56° C | 63% | 999 hPa | - | - | - | - |
| 1777604869 | 5.56° C | 62% | 999 hPa | - | - | - | - |
* Rain since midnight (hover to see other rain measurements)
** Current wind speed in m/s (hover to see current wind gust speed)